Regional Weather Roundup
Issued by NWS Grand Forks, ND

Home | Current Version | Previous Version | Graphics & Text | Print | Product List | Glossary On
Versions: 1 2 3 4 5 6 7 8 9 10 11 12 13 14 15 16 17 18 19 20 21 22 23 24 25 26 27 28 29 30 31 32 33 34 35 36 37 38 39 40 41 42 43 44 45 46 47 48 49 50
000
ASUS43 KFGF 141710
RWRFGF
PRAIRIE TO PINES  WEATHER ROUNDUP
NATIONAL WEATHER SERVICE EASTERN NORTH DAKOTA/GRAND FORKS ND
1200 PM CDT SUN SEP 14 2014

 **SATELLITE DATA USED TO AUGMENT SKY COVER AT AUTOMATED STATIONS**
 *****  WEATHER ACROSS EASTERN NORTH DAKOTA  *****

CITY           SKY/WX    TMP DP  RH WIND       PRES   REMARKS
GRAND FORKS    CLOUDY    53  44  71 NW12      30.10S
GRAND FRKS AFB CLOUDY    53  44  72 NW10      30.12R
GRAND FRKS NWS   N/A     54 N/A N/A NW9         N/A
DEVILS LAKE    PTSUNNY   52  36  54 NW10      30.12S
FARGO          CLOUDY    56  44  64 NW7       30.12R
WAHPETON ARPT  PTSUNNY   54  41  62 W10       30.14S
$$

 ***** WEATHER ACROSS CENTRAL AND WESTERN NORTH DAKOTA  *****

CITY           SKY/WX    TMP DP  RH WIND       PRES   REMARKS
BISMARCK       MOSUNNY   53  41  63 W6        30.20R
MINOT          MOSUNNY   50  37  61 N8        30.17S
JAMESTOWN      CLOUDY    51  42  71 NW10      30.15R
MINOT AFB      MOSUNNY   51  38  62 N10       30.16S
GARRISON         N/A     52  38  58 NW10      30.17S
WILLISTON      SUNNY     51  36  56 CALM      30.19S
DICKINSON      MOSUNNY   50  35  56 NE6       30.18S
HETTINGER      PTSUNNY   49  34  56 NE8       30.19F
$$

 *****  OTHER AIRPORT OBSERVATIONS IN OUR AREA  *****

CITY           SKY/WX    TMP DP  RH WIND       PRES   REMARKS
WALHALLA         N/A     54  46  76 NW16G22   30.10S
GRAFTON AIRPOR CLOUDY    54  43  66 N13G18    30.10R
VALLEY CITY AR PTSUNNY   52  45  76 NW13      30.14R
CANDO          FAIR      52  37  58 NW8       30.14S
CAVALIER APRT  FAIR      55  45  67 N13       30.09S
GWINNER        MOSUNNY   54  43  66 W10G18    30.16S
ROLLA          CLOUDY    48  37  66 N10       30.14S
 ***** THE ABOVE OBSERVATIONS ARE NON NWS ARE NOT QUALITY
       CONTROLLED AND MAY MIS-REPORT RAIN FOR SNOW...
$$

  *****  WEATHER ACROSS NORTHERN MINNESOTA  *****

CITY           SKY/WX    TMP DP  RH WIND       PRES   REMARKS
FLAG ISLAND    MOSUNNY   52  45  76 W13       30.00R
WARROAD        PTSUNNY   54  46  76 NW13      30.04R
ROSEAU         CLOUDY    52  46  82 W7        30.05R
HALLOCK          N/A     52  46  82 NW13G18   30.08R
THF RVR FALLS  CLOUDY    48  45  87 NW12      30.08R
BAUDETTE       PTSUNNY   53  45  74 NW10G17   30.01R
WASKISH        CLOUDY    50  46  87 W12G18    30.04R
CROOKSTON      CLOUDY    52  45  76 NW13G20   30.10S
STEPHEN NDAWN    N/A     52  46  82 NW13        N/A
GREENBUSH NDAW   N/A     52  46  82 NW7         N/A
$$
  *****  WEATHER ACROSS CENTRAL AND WEST MINNESOTA  *****

CITY           SKY/WX    TMP DP  RH WIND       PRES   REMARKS
FOSSTON        CLOUDY    48  43  81 W9        30.09S
BEMIDJI        CLOUDY    48  43  82 W16       30.06S
PARK RAPIDS    CLOUDY    50  42  74 W12       30.08S
ELBOW LAKE     PTSUNNY   52  42  69 NW7       30.13S
WADENA         CLOUDY    50  43  76 W9        30.11R
DETROIT LAKES  CLOUDY    50  45  81 NW9       30.12R
MOORHEAD       PTSUNNY   55  46  71 N8        30.13R
FERGUS FALLS   CLOUDY    52  41  66 NW9       30.14S
MORRIS MN      MOSUNNY   57  43  58 W14       30.14R
STAPLES        CLOUDY    52  41  66 W10       30.10S
$$
  *****  WEATHER ELSEWHERE ACROSS MINNESOTA  *****

CITY           SKY/WX    TMP DP  RH WIND       PRES   REMARKS
DULUTH         PTSUNNY   56  40  55 W22G30    30.02R
INTRNTL FALLS  PTSUNNY   54  45  71 W15G22    29.97R
ELY            CLOUDY    50  41  71 W13G22    29.97R
CLOQUET        PTSUNNY   54  39  58 W17G23    30.04R
WHEATON        MOSUNNY   54  43  66 NW13      30.16F
BRAINERD       CLOUDY    53  41  63 W10G20    30.09F
HIBBING        CLOUDY    52  41  66 W10G20    30.02S
ALEXANDRIA     MOSUNNY   53  42  66 NW10      30.14R
SAINT CLOUD    SUNNY     61  39  44 W16       30.11S
MINNEAPOLIS    PTSUNNY   60  42  51 W8G16     30.13R
$$

  *****  WEATHER ACROSS SOUTH DAKOTA  *****

CITY           SKY/WX    TMP DP  RH WIND       PRES   REMARKS
SIOUX FALLS    PTSUNNY   62  43  49 CALM      30.18S
BROOKINGS      NOT AVBL
WATERTOWN      CLOUDY    52  39  61 W9        30.16F
HURON          PTSUNNY   57  40  52 VRB5      30.18F
SISSETON         N/A     56  41  57 NW13G18   30.15R
ABERDEEN       CLOUDY    52  42  69 VRB5      30.18S
MITCHELL       CLOUDY    59  42  53 CALM      30.19S
PIERRE         CLOUDY    54  39  57 E5        30.18S
MOBRIDGE       CLOUDY    50  41  71 N6        30.17F
RAPID CITY     CLOUDY    49  36  61 S10       30.18S
$$

  *****  SOME WEATHER IN NEARBY STATES *****

CITY           SKY/WX    TMP DP  RH WIND       PRES   REMARKS
GLASGOW MT     CLOUDY    50  34  54 SE10      30.17R
GREAT FALLS MT SUNNY     51  38  60 W5        30.11S
CHEYENNE WY    SUNNY     75  28  17 W12       30.13F
SCOTTSBLUFF NE CLOUDY    50  47  89 E6        30.10F
OMAHA NE       MOSUNNY   65  49  56 S6        30.21F
DES MOINES IA  MOSUNNY   66  49  54 SW9       30.21F
DAVENPORT IA   SUNNY     62  42  47 SW7       30.28F
CHICAGO IL     MOSUNNY   60  41  49 SW12      30.28F
EAU CLAIRE WI  SUNNY     59  46  62 W12G22    30.11F
LA CROSSE WI   SUNNY     65  46  50 SW16G24   30.15F
$$

  *****  SOME NATIONAL WEATHER *****

CITY           SKY/WX    TMP DP  RH WIND       PRES   REMARKS
LA GUARDIA NY  PTSUNNY   65  44  46 NW8       30.24F
RALEIGH NC     CLOUDY    67  58  72 NE7       30.27F
ATLANTA GA     CLOUDY    74  69  85 NE13      30.20S
NEW ORLEANS LA MOSUNNY   81  70  69 NE7       30.12S
OKLAHOMA CITY  MOSUNNY   64  57  78 S8        30.22F
ALBUQUERQUE NM MOSUNNY   69  52  54 CALM      30.27F
SALT LAKE CITY MOSUNNY   75  38  26 CALM      30.05R
LOS ANGELES CA MOSUNNY   82  65  56 SW6       29.77R
BOISE ID       SUNNY     69  31  24 N3        30.01R
SEATTLE WA     SUNNY     67  47  48 N6        29.92S
$$

*** WEATHER ACROSS MANITOBA...SASKATCHEWAN AND ONTARIO ***
                ***ONTARIO***

CITY           SKY/WX    TMP DP  RH WIND       PRES   REMARKS
GERALDTON      LGT RAIN  46  45  93 CALM      29.97  FOG
THUNDER BAY    PTSUNNY   55  46  71 SW10      29.93F
SIOUX LOOKOUT  PTSUNNY   48  45  87 N6        29.91R
TORONTO        PTSUNNY   57  43  58 S5        30.31F
BIG TROUT LK   LGT RAIN  41  39  93 NE6       29.99S
PICKLE LAKE    PTSUNNY   52  39  62 E8        29.92F
DRYDEN         PTSUNNY   50  43  76 N10       29.94R
KENORA         PTSUNNY   50  45  81 NW6       29.99R
$$
                *** MANITOBA***

CITY           SKY/WX    TMP DP  RH WIND       PRES   REMARKS
BRANDON        PTSUNNY   52  39  62 N13G18    30.14F
DAUPHIN        PTSUNNY   52  37  58 N9        30.13S
ISLAND LAKE    PTSUNNY   46  37  71 W3        30.05S
PILOT MOUND      N/A     50  41  71 N9          N/A
THE PAS        PTSUNNY   54  37  54 W9        30.06F
THOMPSON       MOSUNNY   52  37  58 SW6       30.00F
WINNIPEG       PTSUNNY   54  46  76 NW12      30.07S
LYNN LAKE      SUNNY     54  36  50 MISG      29.94F
CHURCHILL      PTSUNNY   46  39  76 W13       29.87F
GILLAM         PTSUNNY   45  36  70 SW10      30.01F
$$
                ***SASKATCHEWAN***

CITY           SKY/WX    TMP DP  RH WIND       PRES   REMARKS
ESTEVAN        MOSUNNY   48  41  76 W5        30.18S
KINDERSLEY     MOSUNNY   54  37  54 S8        30.11S
LLOYDMINSTER   MOSUNNY   55  37  50 SW9       30.07R
PRINCE ALBERT  PTSUNNY   50  41  71 SW6       30.09S
REGINA         PTSUNNY   52  39  62 S6        30.16S
YORKTON        CLOUDY    48  39  71 W5        30.15S
N. BATTLEFORD  NOT AVBL
LA RONGE       NOT AVBL
SASKATOON      CLOUDY    46  39  76 S5        30.13S
SWIFT CURRENT  MOSUNNY   54  37  54 SW12      30.12
$$
NOTE: THESE ARE AUTOMATED STATIONS WITH LIMITED QUALITY CONTROL
      "FAIR" INDICATES FEW OR NO CLOUDS BELOW 12,000 FEET WITH NO
      SIGNIFICANT WEATHER AND/OR OBSTRUCTIONS TO VISIBILITY.
      SKY/WX - SKY CONDITION AND SIGNIFICANT WEATHER.
      TMP - AIR TEMPERATURE.    DP   - DEWPOINT TEMPERATURE.
      RH  - RELATIVE HUMIDITY.  PRES - PRESSURE.
      HX  - HEAT INDEX.         WCI  - WIND CHILL INDEX.
$



USA.gov is the U.S. government's official web portal to all federal, state and local government web resources and services.